DLH6AN EDDV-EDDM

Flight info

Callsign DLH6AN
Flight time 0h 53m
Altitude 31000
Route POVE3H POVEL Z94 GALMA T703 LULAR T105 LANDU LAN08
Aircraft A320/M-SDE3FGHIRWY/LB1

Departure

Time 2026-05-08 04:27
Airport Hannover Airport (EDDV)

Arrival

Time 2026-05-08 05:21
Airport Munich Airport (EDDM)
Time Latitude Longitude Altitude Speed Heading
2026-05-08 04:02 52.45846 9.69467 191 ft 0 kts 22°
2026-05-08 04:18 52.45843 9.69465 204 ft 3 kts 22°
2026-05-08 04:18 52.45819 9.69449 206 ft 4 kts 22°
2026-05-08 04:18 52.45795 9.69434 199 ft 2 kts 22°
2026-05-08 04:19 52.45774 9.69424 202 ft 4 kts 347°
2026-05-08 04:19 52.45751 9.69444 200 ft 4 kts 318°
2026-05-08 04:19 52.45734 9.69468 203 ft 3 kts 322°
2026-05-08 04:19 52.45732 9.69471 204 ft 0 kts 322°
2026-05-08 04:21 52.45752 9.69433 198 ft 8 kts 297°
2026-05-08 04:21 52.45760 9.69313 191 ft 11 kts 272°
2026-05-08 04:22 52.45756 9.69199 205 ft 9 kts 246°
2026-05-08 04:22 52.45707 9.69150 194 ft 8 kts 186°
2026-05-08 04:22 52.45655 9.69144 204 ft 7 kts 184°
2026-05-08 04:22 52.45624 9.69070 196 ft 12 kts 268°
2026-05-08 04:23 52.45628 9.68930 202 ft 12 kts 273°
2026-05-08 04:23 52.45632 9.68785 191 ft 14 kts 272°
2026-05-08 04:23 52.45637 9.68602 191 ft 17 kts 273°
2026-05-08 04:23 52.45643 9.68403 197 ft 18 kts 273°
2026-05-08 04:24 52.45649 9.68186 191 ft 20 kts 273°
2026-05-08 04:24 52.45656 9.67951 191 ft 16 kts 272°
2026-05-08 04:24 52.45656 9.67797 196 ft 11 kts 256°
2026-05-08 04:24 52.45608 9.67710 200 ft 6 kts 207°
2026-05-08 04:25 52.45587 9.67703 191 ft 0 kts 184°
2026-05-08 04:26 52.45586 9.67703 191 ft 1 kts 184°
2026-05-08 04:26 52.45552 9.67699 188 ft 10 kts 184°
2026-05-08 04:26 52.45500 9.67761 188 ft 10 kts 108°
2026-05-08 04:27 52.45491 9.67948 186 ft 37 kts 92°
2026-05-08 04:27 52.45479 9.68432 191 ft 89 kts 92°
2026-05-08 04:27 52.45439 9.69810 191 ft 149 kts 92°
2026-05-08 04:27 52.45394 9.71537 786 ft 152 kts 92°
2026-05-08 04:28 52.45349 9.73277 1637 ft 155 kts 91°
2026-05-08 04:28 52.45315 9.75122 2151 ft 169 kts 90°
2026-05-08 04:28 52.45279 9.77118 2676 ft 182 kts 91°
2026-05-08 04:28 52.45219 9.79323 2995 ft 207 kts 92°
2026-05-08 04:29 52.45138 9.81821 3424 ft 233 kts 92°
2026-05-08 04:29 52.45048 9.84585 4011 ft 251 kts 92°
2026-05-08 04:29 52.44951 9.87468 4895 ft 256 kts 92°
2026-05-08 04:29 52.44857 9.90421 5812 ft 262 kts 92°
2026-05-08 04:30 52.44599 9.93406 6706 ft 268 kts 104°
2026-05-08 04:30 52.43871 9.96258 7546 ft 275 kts 119°
2026-05-08 04:30 52.42892 9.98984 8412 ft 279 kts 120°
2026-05-08 04:30 52.41914 10.01724 9261 ft 283 kts 120°
2026-05-08 04:31 52.40912 10.04549 10126 ft 288 kts 120°
2026-05-08 04:31 52.39880 10.07472 10589 ft 308 kts 120°
2026-05-08 04:31 52.38766 10.10634 10859 ft 332 kts 120°
2026-05-08 04:31 52.37581 10.13993 11331 ft 345 kts 120°
2026-05-08 04:32 52.36367 10.17424 12056 ft 351 kts 120°
2026-05-08 04:32 52.35132 10.20896 12803 ft 355 kts 121°
2026-05-08 04:32 52.33879 10.24413 13551 ft 359 kts 121°
2026-05-08 04:32 52.32613 10.27965 14253 ft 363 kts 121°
2026-05-08 04:33 52.31345 10.31527 14897 ft 367 kts 121°
2026-05-08 04:33 52.30050 10.35158 15557 ft 371 kts 121°
2026-05-08 04:33 52.28735 10.38827 16202 ft 375 kts 121°
2026-05-08 04:33 52.27403 10.42529 16852 ft 379 kts 121°
2026-05-08 04:34 52.26059 10.46256 17486 ft 382 kts 121°
2026-05-08 04:34 52.24714 10.49985 18125 ft 386 kts 121°
2026-05-08 04:34 52.23346 10.53785 18713 ft 390 kts 121°
2026-05-08 04:34 52.21964 10.57624 19255 ft 393 kts 121°
2026-05-08 04:35 52.20570 10.61488 19812 ft 396 kts 122°
2026-05-08 04:35 52.19160 10.65376 20353 ft 398 kts 122°
2026-05-08 04:35 52.17743 10.69277 20896 ft 401 kts 122°
2026-05-08 04:35 52.16314 10.73205 21421 ft 404 kts 122°
2026-05-08 04:36 52.14867 10.77148 21937 ft 406 kts 124°
2026-05-08 04:36 52.13171 10.80767 22440 ft 407 kts 134°
2026-05-08 04:36 52.11083 10.83895 22949 ft 407 kts 144°
2026-05-08 04:36 52.08696 10.86385 23440 ft 408 kts 154°
2026-05-08 04:37 52.06175 10.88550 23905 ft 411 kts 154°
2026-05-08 04:37 52.03635 10.90736 24336 ft 413 kts 154°
2026-05-08 04:37 52.01082 10.92937 24773 ft 415 kts 153°
2026-05-08 04:37 51.98519 10.95150 25178 ft 417 kts 153°
2026-05-08 04:38 51.95944 10.97373 25577 ft 419 kts 153°
2026-05-08 04:38 51.93397 10.99574 25978 ft 421 kts 153°
2026-05-08 04:38 51.90799 11.01815 26371 ft 423 kts 153°
2026-05-08 04:38 51.88201 11.04054 26750 ft 425 kts 153°
2026-05-08 04:39 51.85576 11.06309 27143 ft 427 kts 154°
2026-05-08 04:39 51.82944 11.08562 27538 ft 429 kts 154°
2026-05-08 04:39 51.80300 11.10820 27933 ft 430 kts 154°
2026-05-08 04:39 51.77639 11.13092 28310 ft 432 kts 154°
2026-05-08 04:40 51.74968 11.15374 28675 ft 434 kts 153°
2026-05-08 04:40 51.72286 11.17659 29031 ft 435 kts 154°
2026-05-08 04:40 51.69637 11.19912 29382 ft 436 kts 154°
2026-05-08 04:40 51.66945 11.22202 29706 ft 438 kts 153°
2026-05-08 04:41 51.64236 11.24501 30067 ft 440 kts 153°
2026-05-08 04:41 51.61523 11.26797 30385 ft 441 kts 153°
2026-05-08 04:41 51.58802 11.29101 30749 ft 440 kts 154°
2026-05-08 04:41 51.56088 11.31399 31061 ft 439 kts 154°
2026-05-08 04:42 51.50763 11.35904 31144 ft 429 kts 154°
2026-05-08 04:42 51.45488 11.40343 31145 ft 427 kts 154°
2026-05-08 04:43 51.40208 11.44773 31145 ft 427 kts 154°
2026-05-08 04:43 51.34936 11.49175 31142 ft 426 kts 154°
2026-05-08 04:44 51.29697 11.53534 31146 ft 426 kts 154°
2026-05-08 04:44 51.24429 11.57901 31143 ft 426 kts 154°
2026-05-08 04:45 51.19152 11.62270 31136 ft 426 kts 154°
2026-05-08 04:45 51.13811 11.66397 31129 ft 425 kts 161°
2026-05-08 04:46 51.08061 11.68130 31126 ft 424 kts 178°
2026-05-08 04:46 51.02141 11.68432 31119 ft 425 kts 178°
2026-05-08 04:47 50.96205 11.68762 31117 ft 426 kts 178°
2026-05-08 04:47 50.90296 11.69090 31119 ft 427 kts 178°
2026-05-08 04:48 50.84362 11.69418 31128 ft 427 kts 178°
2026-05-08 04:48 50.78417 11.69737 31118 ft 427 kts 178°
2026-05-08 04:49 50.72474 11.70093 31120 ft 426 kts 174°
2026-05-08 04:49 50.66753 11.72237 31114 ft 426 kts 162°
2026-05-08 04:50 50.61107 11.75189 31113 ft 426 kts 162°
2026-05-08 04:50 50.55461 11.78103 31107 ft 426 kts 163°
2026-05-08 04:51 50.49824 11.80993 31108 ft 425 kts 163°
2026-05-08 04:51 50.44285 11.84196 31104 ft 426 kts 158°
2026-05-08 04:52 50.38852 11.87893 31099 ft 426 kts 158°
2026-05-08 04:52 50.33405 11.91575 31102 ft 425 kts 159°
2026-05-08 04:53 50.27959 11.95239 31106 ft 425 kts 159°
2026-05-08 04:53 50.22526 11.98891 31109 ft 424 kts 159°
2026-05-08 04:54 50.17141 12.02512 31117 ft 423 kts 159°
2026-05-08 04:54 50.11728 12.06147 31115 ft 422 kts 159°
2026-05-08 04:55 50.06358 12.09741 31114 ft 421 kts 159°
2026-05-08 04:55 50.00971 12.13333 31108 ft 419 kts 159°
2026-05-08 04:56 49.95608 12.16897 31105 ft 418 kts 160°
2026-05-08 04:56 49.90264 12.20432 31094 ft 416 kts 160°
2026-05-08 04:57 49.84928 12.23956 31089 ft 416 kts 160°
2026-05-08 04:57 49.79636 12.27455 31089 ft 414 kts 160°
2026-05-08 04:58 49.74332 12.30964 31093 ft 414 kts 160°
2026-05-08 04:58 49.68820 12.33127 30489 ft 411 kts 184°
2026-05-08 04:59 49.65945 12.32891 29921 ft 414 kts 184°
2026-05-08 04:59 49.63089 12.32666 29288 ft 417 kts 184°
2026-05-08 04:59 49.60178 12.32468 28672 ft 420 kts 184°
2026-05-08 04:59 49.57243 12.32295 28057 ft 423 kts 184°
2026-05-08 05:00 49.54291 12.32143 27464 ft 424 kts 183°
2026-05-08 05:00 49.52298 12.32050 27071 ft 423 kts 183°
2026-05-08 05:00 49.49360 12.31919 26496 ft 421 kts 183°
2026-05-08 05:00 49.46467 12.31789 25941 ft 419 kts 183°
2026-05-08 05:01 49.43548 12.31652 25403 ft 418 kts 183°
2026-05-08 05:01 49.40645 12.31506 24937 ft 416 kts 183°
2026-05-08 05:01 49.37746 12.31353 24478 ft 415 kts 183°
2026-05-08 05:01 49.34854 12.31196 24023 ft 414 kts 183°
2026-05-08 05:02 49.31976 12.31039 23559 ft 413 kts 183°
2026-05-08 05:02 49.29109 12.30888 23029 ft 411 kts 183°
2026-05-08 05:02 49.26259 12.30745 22507 ft 408 kts 183°
2026-05-08 05:02 49.23431 12.30604 21998 ft 405 kts 183°
2026-05-08 05:03 49.20658 12.30466 21505 ft 402 kts 183°
2026-05-08 05:03 49.17861 12.30323 21009 ft 400 kts 184°
2026-05-08 05:03 49.15078 12.30177 20521 ft 398 kts 184°
2026-05-08 05:03 49.12311 12.30037 20042 ft 396 kts 184°
2026-05-08 05:04 49.09565 12.29898 19565 ft 393 kts 184°
2026-05-08 05:04 49.06826 12.29761 19103 ft 392 kts 184°
2026-05-08 05:04 49.04100 12.29623 18647 ft 390 kts 184°
2026-05-08 05:04 49.01428 12.29487 18177 ft 388 kts 184°
2026-05-08 05:05 48.98736 12.29350 17655 ft 385 kts 184°
2026-05-08 05:05 48.96058 12.29212 17150 ft 382 kts 184°
2026-05-08 05:05 48.93408 12.29076 16644 ft 379 kts 184°
2026-05-08 05:05 48.90805 12.28624 16165 ft 373 kts 197°
2026-05-08 05:06 48.88447 12.27085 15777 ft 368 kts 213°
2026-05-08 05:06 48.86521 12.24570 15402 ft 364 kts 230°
2026-05-08 05:06 48.85084 12.21402 15033 ft 362 kts 237°
2026-05-08 05:06 48.83750 12.18225 14667 ft 360 kts 237°
2026-05-08 05:07 48.82406 12.15014 14297 ft 358 kts 237°
2026-05-08 05:07 48.81072 12.11830 13940 ft 356 kts 237°
2026-05-08 05:07 48.79745 12.08672 13540 ft 354 kts 237°
2026-05-08 05:07 48.78415 12.05517 13128 ft 352 kts 237°
2026-05-08 05:08 48.77094 12.02400 12730 ft 350 kts 237°
2026-05-08 05:08 48.75774 11.99294 12334 ft 348 kts 237°
2026-05-08 05:08 48.74468 11.96219 11947 ft 346 kts 237°
2026-05-08 05:08 48.73184 11.93194 11569 ft 344 kts 237°
2026-05-08 05:09 48.71894 11.90156 11191 ft 342 kts 237°
2026-05-08 05:09 48.70608 11.87133 10815 ft 339 kts 237°
2026-05-08 05:09 48.69331 11.84141 10448 ft 337 kts 237°
2026-05-08 05:09 48.68060 11.81172 10095 ft 335 kts 237°
2026-05-08 05:10 48.66796 11.78219 9734 ft 333 kts 238°
2026-05-08 05:10 48.64289 11.72363 8989 ft 327 kts 238°
2026-05-08 05:10 48.63072 11.69521 8622 ft 317 kts 238°
2026-05-08 05:11 48.61885 11.66754 8258 ft 309 kts 238°
2026-05-08 05:11 48.60731 11.64062 7900 ft 301 kts 238°
2026-05-08 05:11 48.59617 11.61465 7568 ft 295 kts 238°
2026-05-08 05:11 48.58507 11.58884 7295 ft 290 kts 238°
2026-05-08 05:12 48.57406 11.56329 7033 ft 289 kts 238°
2026-05-08 05:12 48.56307 11.53781 6797 ft 288 kts 238°
2026-05-08 05:12 48.55212 11.51252 6554 ft 287 kts 238°
2026-05-08 05:12 48.54120 11.48733 6296 ft 286 kts 238°
2026-05-08 05:13 48.53029 11.46213 6032 ft 285 kts 238°
2026-05-08 05:13 48.51898 11.43742 5833 ft 287 kts 230°
2026-05-08 05:13 48.50315 11.41898 5646 ft 291 kts 210°
2026-05-08 05:13 48.48483 11.40689 5506 ft 281 kts 205°
2026-05-08 05:14 48.46732 11.39646 5402 ft 267 kts 204°
2026-05-08 05:14 48.45019 11.38645 5297 ft 262 kts 204°
2026-05-08 05:14 48.43343 11.37684 5195 ft 251 kts 201°
2026-05-08 05:14 48.41645 11.37318 5079 ft 242 kts 186°
2026-05-08 05:15 48.39988 11.37272 5003 ft 231 kts 185°
2026-05-08 05:15 48.38407 11.37424 5007 ft 229 kts 171°
2026-05-08 05:15 48.36955 11.38408 5010 ft 231 kts 149°
2026-05-08 05:15 48.35723 11.39826 5007 ft 219 kts 145°
2026-05-08 05:16 48.34622 11.41402 5004 ft 220 kts 130°
2026-05-08 05:16 48.33946 11.43443 5036 ft 216 kts 107°
2026-05-08 05:16 48.33821 11.45668 5013 ft 211 kts 84°
2026-05-08 05:16 48.33995 11.47841 5007 ft 208 kts 82°
2026-05-08 05:17 48.34170 11.49998 5000 ft 207 kts 83°
2026-05-08 05:17 48.34341 11.52150 4829 ft 207 kts 83°
2026-05-08 05:17 48.34513 11.54308 4580 ft 207 kts 83°
2026-05-08 05:17 48.34683 11.56448 4307 ft 206 kts 83°
2026-05-08 05:18 48.34852 11.58582 4013 ft 204 kts 83°
2026-05-08 05:18 48.35019 11.60701 3750 ft 204 kts 83°
2026-05-08 05:18 48.35184 11.62784 3474 ft 199 kts 83°
2026-05-08 05:18 48.35340 11.64776 3241 ft 182 kts 83°
2026-05-08 05:19 48.35482 11.66583 2974 ft 168 kts 84°
2026-05-08 05:19 48.35615 11.68290 2750 ft 161 kts 84°
2026-05-08 05:19 48.35745 11.69944 2501 ft 157 kts 84°
2026-05-08 05:19 48.35871 11.71546 2243 ft 152 kts 83°
2026-05-08 05:20 48.35991 11.73091 2015 ft 146 kts 83°
2026-05-08 05:20 48.36107 11.74590 1804 ft 142 kts 82°
2026-05-08 05:20 48.36221 11.76060 1619 ft 140 kts 82°
2026-05-08 05:20 48.36333 11.77496 1487 ft 130 kts 83°
2026-05-08 05:21 48.36422 11.78614 1479 ft 82 kts 84°
2026-05-08 05:21 48.36462 11.79197 1480 ft 27 kts 96°
2026-05-08 05:21 48.36413 11.79389 1483 ft 20 kts 112°
2026-05-08 05:21 48.36380 11.79509 1479 ft 12 kts 113°
2026-05-08 05:22 48.36344 11.79631 1480 ft 13 kts 114°
2026-05-08 05:22 48.36300 11.79764 1474 ft 15 kts 131°
2026-05-08 05:22 48.36212 11.79837 1479 ft 15 kts 172°
2026-05-08 05:22 48.36129 11.79787 1478 ft 14 kts 255°
2026-05-08 05:23 48.36119 11.79646 1479 ft 13 kts 265°
2026-05-08 05:23 48.36106 11.79484 1479 ft 17 kts 263°
2026-05-08 05:23 48.36089 11.79351 1476 ft 11 kts 236°
2026-05-08 05:23 48.36017 11.79329 1476 ft 12 kts 173°
2026-05-08 05:24 48.35937 11.79348 1485 ft 11 kts 165°
2026-05-08 05:24 48.35856 11.79386 1482 ft 12 kts 175°
2026-05-08 05:24 48.35776 11.79398 1472 ft 11 kts 173°
2026-05-08 05:24 48.35706 11.79410 1475 ft 9 kts 173°
2026-05-08 05:25 48.35655 11.79386 1477 ft 7 kts 239°
2026-05-08 05:25 48.35646 11.79316 1475 ft 6 kts 263°
2026-05-08 05:25 48.35643 11.79273 1477 ft 0 kts 263°